| time (UTC) | temp F | wind direction | speed knots | gust knots | rain 1hr in | rain 24hr in | rain mn in | humidity % | barometer mb |
| 20260904062931 | 55 | 217 | 2.6 | 2.6 | 0.00 | 0.00 | 0.00 | 49 | 1029.8 |
| 20260904062426 | 56 | 198 | 2.6 | 2.6 | 0.00 | 0.00 | 0.00 | 49 | 1030.0 |
| 20260904061922 | 55 | 193 | 3.5 | 5.2 | 0.00 | 0.00 | 0.00 | 48 | 1029.9 |
| 20260904061419 | 55 | 205 | 2.6 | 2.6 | 0.00 | 0.00 | 0.00 | 51 | 1029.8 |
| 20260904060915 | 55 | 197 | 3.5 | 3.5 | 0.00 | 0.00 | 0.00 | 50 | 1029.9 |
| 20260904060410 | 55 | 207 | 2.6 | 2.6 | 0.00 | 0.00 | 0.00 | 51 | 1030.0 |
| 20260904055906 | 55 | 205 | 1.7 | 2.6 | 0.00 | 0.00 | 0.00 | 51 | 1029.8 |
| 20260904055401 | 55 | 206 | 2.6 | 2.6 | 0.00 | 0.00 | 0.00 | 50 | 1029.6 |
| 20260904054856 | 55 | 202 | 2.6 | 2.6 | 0.00 | 0.00 | 0.00 | 51 | 1029.9 |
| 20260904054352 | 55 | 210 | 3.5 | 3.5 | 0.00 | 0.00 | 0.00 | 50 | 1029.9 |
| 20260904053847 | 55 | 201 | 2.6 | 2.6 | 0.00 | 0.00 | 0.00 | 51 | 1029.8 |
| 20260904053347 | 55 | 200 | 2.6 | 3.5 | 0.00 | 0.00 | 0.00 | 50 | 1029.8 |
| 20260904052843 | 56 | 203 | 2.6 | 2.6 | 0.00 | 0.00 | 0.00 | 50 | 1029.6 |
| 20260904052339 | 55 | 196 | 2.6 | 2.6 | 0.00 | 0.00 | 0.00 | 50 | 1029.5 |
| 20260904051835 | 56 | 201 | 2.6 | 2.6 | 0.00 | 0.00 | 0.00 | 51 | 1029.9 |
| 20260904051331 | 57 | 205 | 2.6 | 2.6 | 0.00 | 0.00 | 0.00 | 48 | 1029.8 |
| 20260904050830 | 57 | 206 | 3.5 | 3.5 | 0.00 | 0.00 | 0.00 | 47 | 1029.8 |
| 20260904050328 | 58 | 215 | 1.7 | 3.5 | 0.00 | 0.00 | 0.00 | 46 | 1029.8 |
| 20260904045822 | 58 | 202 | 2.6 | 3.5 | 0.00 | 0.00 | 0.00 | 46 | 1029.9 |
| 20260904045317 | 58 | 212 | 1.7 | 2.6 | 0.00 | 0.00 | 0.00 | 47 | 1029.8 |
| 20260904044817 | 59 | 226 | 1.7 | 2.6 | 0.00 | 0.00 | 0.00 | 46 | 1029.8 |
| 20260904044314 | 60 | 229 | 1.7 | 1.7 | 0.00 | 0.00 | 0.00 | 43 | 1029.9 |
| 20260904043809 | 61 | 244 | 1.7 | 2.6 | 0.00 | 0.00 | 0.00 | 43 | 1029.9 |
| 20260904043306 | 61 | 202 | 2.6 | 3.5 | 0.00 | 0.00 | 0.00 | 43 | 1029.8 |
| 20260904042800 | 61 | 209 | 1.7 | 3.5 | 0.00 | 0.00 | 0.00 | 42 | 1029.9 |
| 20260904042257 | 61 | 248 | 0.9 | 1.7 | 0.00 | 0.00 | 0.00 | 42 | 1030.0 |
| 20260904041756 | 61 | 246 | 1.7 | 5.2 | 0.00 | 0.00 | 0.00 | 42 | 1030.0 |
| 20260904041253 | 61 | 230 | 1.7 | 5.2 | 0.00 | 0.00 | 0.00 | 43 | 1030.2 |
| 20260904040748 | 61 | 245 | 1.7 | 1.7 | 0.00 | 0.00 | 0.00 | 42 | 1030.0 |
| 20260904040244 | 60 | 215 | 2.6 | 2.6 | 0.00 | 0.00 | 0.00 | 43 | 1030.0 |
| 20260904035740 | 60 | 226 | 1.7 | 2.6 | 0.00 | 0.00 | 0.00 | 43 | 1030.2 |
| 20260904035235 | 60 | 232 | 1.7 | 2.6 | 0.00 | 0.00 | 0.00 | 43 | 1030.3 |
| 20260904034734 | 60 | 234 | 1.7 | 2.6 | 0.00 | 0.00 | 0.00 | 44 | 1030.4 |
| 20260904034230 | 60 | 224 | 1.7 | 2.6 | 0.00 | 0.00 | 0.00 | 43 | 1030.2 |
| 20260904033725 | 60 | 227 | 2.6 | 2.6 | 0.00 | 0.00 | 0.00 | 43 | 1030.2 |
| 20260904033222 | 60 | 220 | 1.7 | 1.7 | 0.00 | 0.00 | 0.00 | 43 | 1030.2 |
| 20260904032713 | 60 | 194 | 1.7 | 2.6 | 0.00 | 0.00 | 0.00 | 42 | 1029.9 |
| 20260904032211 | 60 | 198 | 2.6 | 2.6 | 0.00 | 0.00 | 0.00 | 44 | 1030.2 |
| 20260904031706 | 60 | 254 | 0.9 | 1.7 | 0.00 | 0.00 | 0.00 | 44 | 1029.9 |
| 20260904031201 | 60 | 225 | 0.9 | 1.7 | 0.00 | 0.00 | 0.00 | 43 | 1030.0 |
| 20260904030657 | 60 | 222 | 1.7 | 2.6 | 0.00 | 0.00 | 0.00 | 43 | 1030.2 |
| 20260904030152 | 60 | 227 | 1.7 | 1.7 | 0.00 | 0.00 | 0.00 | 43 | 1030.3 |
| 20260904025648 | 61 | 244 | 0.9 | 1.7 | 0.00 | 0.00 | 0.00 | 41 | 1029.9 |
| 20260904025143 | 62 | 252 | 0.0 | 0.9 | 0.00 | 0.00 | 0.00 | 42 | 1030.2 |
| 20260904024639 | 62 | 254 | 0.0 | 1.7 | 0.00 | 0.00 | 0.00 | 41 | 1030.0 |
| 20260904024134 | 62 | 259 | 0.9 | 1.7 | 0.00 | 0.00 | 0.00 | 40 | 1030.0 |
| 20260904023630 | 61 | 249 | 0.9 | 1.7 | 0.00 | 0.00 | 0.00 | 42 | 1029.8 |
| 20260904023125 | 61 | 247 | 0.0 | 0.9 | 0.00 | 0.00 | 0.00 | 44 | 1029.9 |
| 20260904022625 | 61 | 236 | 1.7 | 1.7 | 0.00 | 0.00 | 0.00 | 43 | 1029.6 |
| 20260904022122 | 63 | 248 | 0.9 | 0.9 | 0.00 | 0.00 | 0.00 | 41 | 1029.5 |
| 20260904021617 | 62 | 276 | 1.7 | 2.6 | 0.00 | 0.00 | 0.00 | 39 | 1029.4 |
| 20260904021112 | 63 | 255 | 0.0 | 0.9 | 0.00 | 0.00 | 0.00 | 41 | 1029.5 |
| 20260904020608 | 62 | 267 | 0.0 | 0.9 | 0.00 | 0.00 | 0.00 | 40 | 1029.6 |
| 20260904020057 | 63 | 253 | 0.0 | 0.9 | 0.00 | 0.00 | 0.00 | 40 | 1029.4 |
| 20260904015556 | 64 | 269 | 0.0 | 0.9 | 0.00 | 0.00 | 0.00 | 38 | 1029.5 |
| 20260904015056 | 64 | 272 | 1.7 | 3.5 | 0.00 | 0.00 | 0.00 | 38 | 1029.4 |
| 20260904014550 | 64 | 296 | 0.0 | 1.7 | 0.00 | 0.00 | 0.00 | 39 | 1029.3 |
| 20260904014046 | 64 | 259 | 0.0 | 1.7 | 0.00 | 0.00 | 0.00 | 39 | 1029.1 |
| 20260904013542 | 64 | 298 | 1.7 | 2.6 | 0.00 | 0.00 | 0.00 | 38 | 1029.4 |
| 20260904013038 | 64 | 267 | 0.9 | 1.7 | 0.00 | 0.00 | 0.00 | 38 | 1029.3 |
| 20260904012532 | 64 | 315 | 1.7 | 3.5 | 0.00 | 0.00 | 0.00 | 38 | 1029.4 |
| 20260904012026 | 65 | 333 | 3.5 | 6.1 | 0.00 | 0.00 | 0.00 | 37 | 1029.3 |
| 20260904011525 | 65 | 259 | 0.0 | 0.9 | 0.00 | 0.00 | 0.00 | 38 | 1029.3 |
| 20260904011021 | 65 | 284 | 0.9 | 3.5 | 0.00 | 0.00 | 0.00 | 38 | 1029.4 |
| 20260904010517 | 65 | 278 | 1.7 | 2.6 | 0.00 | 0.00 | 0.00 | 38 | 1029.6 |
| 20260904010013 | 66 | 43 | 1.7 | 5.2 | 0.00 | 0.00 | 0.00 | 38 | 1029.3 |
| 20260904005508 | 66 | 355 | 2.6 | 3.5 | 0.00 | 0.00 | 0.00 | 37 | 1029.1 |
| 20260904005003 | 66 | 27 | 1.7 | 6.1 | 0.00 | 0.00 | 0.00 | 37 | 1029.3 |
| 20260904004458 | 67 | 352 | 3.5 | 6.1 | 0.00 | 0.00 | 0.00 | 37 | 1029.3 |
| 20260904003953 | 67 | 272 | 2.6 | 6.1 | 0.00 | 0.00 | 0.00 | 35 | 1029.3 |
| 20260904003449 | 68 | 288 | 0.9 | 2.6 | 0.00 | 0.00 | 0.00 | 35 | 1029.3 |
| 20260904002944 | 68 | 297 | 2.6 | 7.8 | 0.00 | 0.00 | 0.00 | 34 | 1029.3 |
| 20260904002441 | 68 | 326 | 9.6 | 12.2 | 0.00 | 0.00 | 0.00 | 34 | 1029.1 |
| 20260904001939 | 67 | 271 | 0.9 | 1.7 | 0.00 | 0.00 | 0.00 | 36 | 1029.1 |
| 20260904001435 | 68 | 252 | 0.9 | 7.8 | 0.00 | 0.00 | 0.00 | 35 | 1028.9 |
| 20260904000934 | 68 | 264 | 2.6 | 5.2 | 0.00 | 0.00 | 0.00 | 34 | 1029.3 |
| 20260904000435 | 69 | 315 | 2.6 | 2.6 | 0.00 | 0.00 | 0.00 | 34 | 1029.3 |
| 20260903235930 | 69 | 262 | 0.0 | 2.6 | 0.00 | 0.00 | 0.00 | 34 | 1029.3 |
| 20260903235426 | 69 | 16 | 2.6 | 7.8 | 0.00 | 0.00 | 0.00 | 33 | 1029.0 |
| 20260903234925 | 69 | 281 | 3.5 | 7.0 | 0.00 | 0.00 | 0.00 | 33 | 1029.1 |
| 20260903234421 | 70 | 284 | 1.7 | 5.2 | 0.00 | 0.00 | 0.00 | 33 | 1029.1 |
| 20260903233917 | 70 | 47 | 5.2 | 7.0 | 0.00 | 0.00 | 0.00 | 33 | 1029.1 |
| 20260903233413 | 70 | 14 | 3.5 | 7.0 | 0.00 | 0.00 | 0.00 | 33 | 1029.1 |
| 20260903232908 | 70 | 299 | 3.5 | 7.0 | 0.00 | 0.00 | 0.00 | 33 | 1028.9 |
| 20260903232403 | 70 | 354 | 5.2 | 9.6 | 0.00 | 0.00 | 0.00 | 33 | 1029.0 |
| 20260903231903 | 70 | 289 | 5.2 | 6.1 | 0.00 | 0.00 | 0.00 | 33 | 1029.3 |
| 20260903231357 | 69 | 14 | 5.2 | 7.0 | 0.00 | 0.00 | 0.00 | 33 | 1029.0 |
| 20260903230853 | 70 | 344 | 4.3 | 6.1 | 0.00 | 0.00 | 0.00 | 33 | 1029.3 |
| 20260903230348 | 71 | 317 | 5.2 | 7.8 | 0.00 | 0.00 | 0.00 | 34 | 1028.9 |
| 20260903225844 | 71 | 332 | 4.3 | 7.0 | 0.00 | 0.00 | 0.00 | 33 | 1029.1 |
| 20260903225339 | 71 | 269 | 3.5 | 7.0 | 0.00 | 0.00 | 0.00 | 33 | 1029.1 |
| 20260903224835 | 71 | 353 | 6.1 | 9.6 | 0.00 | 0.00 | 0.00 | 33 | 1029.0 |
| 20260903224326 | 71 | 135 | 2.6 | 9.6 | 0.00 | 0.00 | 0.00 | 33 | 1028.9 |
| 20260903223822 | 71 | 312 | 7.0 | 8.7 | 0.00 | 0.00 | 0.00 | 33 | 1029.1 |
| 20260903223320 | 72 | 15 | 5.2 | 7.0 | 0.00 | 0.00 | 0.00 | 33 | 1029.0 |
| 20260903222815 | 71 | 305 | 2.6 | 8.7 | 0.00 | 0.00 | 0.00 | 32 | 1028.9 |
| 20260903222313 | 73 | 294 | 2.6 | 2.6 | 0.00 | 0.00 | 0.00 | 31 | 1029.0 |
| 20260903221809 | 72 | 75 | 4.3 | 5.2 | 0.00 | 0.00 | 0.00 | 31 | 1029.0 |
| 20260903221308 | 71 | 349 | 3.5 | 6.1 | 0.00 | 0.00 | 0.00 | 32 | 1029.1 |
| 20260903220806 | 70 | 322 | 2.6 | 6.1 | 0.00 | 0.00 | 0.00 | 33 | 1029.4 |
| 20260903220300 | 72 | 20 | 3.5 | 5.2 | 0.00 | 0.00 | 0.00 | 33 | 1029.3 |
| 20260903215753 | 72 | 55 | 3.5 | 5.2 | 0.00 | 0.00 | 0.00 | 31 | 1029.1 |
| 20260903215250 | 72 | 352 | 4.3 | 7.8 | 0.00 | 0.00 | 0.00 | 33 | 1029.1 |
| 20260903214747 | 71 | 25 | 2.6 | 5.2 | 0.00 | 0.00 | 0.00 | 32 | 1029.1 |
| 20260903214244 | 71 | 60 | 2.6 | 7.0 | 0.00 | 0.00 | 0.00 | 33 | 1029.1 |
| 20260903213738 | 70 | 236 | 5.2 | 8.7 | 0.00 | 0.00 | 0.00 | 33 | 1029.3 |
| 20260903213234 | 71 | 282 | 3.5 | 6.1 | 0.00 | 0.00 | 0.00 | 33 | 1029.0 |
| 20260903212729 | 71 | 299 | 5.2 | 13.9 | 0.00 | 0.00 | 0.00 | 33 | 1029.0 |
| 20260903212226 | 71 | 71 | 4.3 | 8.7 | 0.00 | 0.00 | 0.00 | 34 | 1029.3 |
| 20260903211725 | 71 | 301 | 4.3 | 12.2 | 0.00 | 0.00 | 0.00 | 34 | 1029.3 |
| 20260903211221 | 71 | 234 | 1.7 | 6.1 | 0.00 | 0.00 | 0.00 | 34 | 1029.1 |
| 20260903210717 | 71 | 354 | 3.5 | 7.0 | 0.00 | 0.00 | 0.00 | 33 | 1029.3 |
| 20260903210213 | 69 | 14 | 5.2 | 7.0 | 0.00 | 0.00 | 0.00 | 35 | 1029.4 |
| 20260903205712 | 69 | 333 | 0.9 | 7.0 | 0.00 | 0.00 | 0.00 | 36 | 1029.4 |
| 20260903205211 | 70 | 346 | 3.5 | 6.1 | 0.00 | 0.00 | 0.00 | 34 | 1029.6 |
| 20260903204707 | 70 | 5 | 3.5 | 8.7 | 0.00 | 0.00 | 0.00 | 34 | 1029.5 |
| 20260903204203 | 70 | 333 | 5.2 | 6.1 | 0.00 | 0.00 | 0.00 | 34 | 1029.6 |
| 20260903203658 | 71 | 20 | 7.8 | 13.0 | 0.00 | 0.00 | 0.00 | 33 | 1029.4 |
| 20260903203153 | 72 | 3 | 3.5 | 7.8 | 0.00 | 0.00 | 0.00 | 35 | 1029.4 |
| 20260903202648 | 72 | 7 | 0.9 | 6.1 | 0.00 | 0.00 | 0.00 | 32 | 1029.4 |
| 20260903202144 | 72 | 13 | 4.3 | 9.6 | 0.00 | 0.00 | 0.00 | 34 | 1029.6 |
| 20260903201638 | 74 | 350 | 2.6 | 7.8 | 0.00 | 0.00 | 0.00 | 31 | 1029.4 |
| 20260903201137 | 73 | 59 | 3.5 | 6.1 | 0.00 | 0.00 | 0.00 | 30 | 1029.1 |
| 20260903200632 | 73 | 338 | 6.1 | 7.0 | 0.00 | 0.00 | 0.00 | 32 | 1029.5 |
| 20260903200128 | 71 | 0 | 3.5 | 5.2 | 0.00 | 0.00 | 0.00 | 34 | 1029.4 |
| 20260903195623 | 71 | 316 | 5.2 | 7.8 | 0.00 | 0.00 | 0.00 | 34 | 1029.5 |
| 20260903195119 | 73 | 287 | 2.6 | 13.9 | 0.00 | 0.00 | 0.00 | 31 | 1029.5 |
| 20260903194614 | 71 | 39 | 7.0 | 9.6 | 0.00 | 0.00 | 0.00 | 30 | 1029.5 |
| 20260903194109 | 72 | 258 | 5.2 | 7.8 | 0.00 | 0.00 | 0.00 | 29 | 1029.6 |
| 20260903193605 | 72 | 183 | 1.7 | 5.2 | 0.00 | 0.00 | 0.00 | 30 | 1029.6 |
| 20260903193100 | 70 | 72 | 0.9 | 3.5 | 0.00 | 0.00 | 0.00 | 32 | 1029.8 |
| 20260903192557 | 71 | 10 | 2.6 | 3.5 | 0.00 | 0.00 | 0.00 | 33 | 1029.8 |
| 20260903192057 | 72 | 31 | 0.9 | 2.6 | 0.00 | 0.00 | 0.00 | 33 | 1029.9 |
| 20260903191553 | 71 | 224 | 0.9 | 3.5 | 0.00 | 0.00 | 0.00 | 31 | 1029.8 |
| 20260903191048 | 71 | 216 | 0.9 | 1.7 | 0.00 | 0.00 | 0.00 | 32 | 1030.0 |
| 20260903190547 | 70 | 120 | 0.9 | 5.2 | 0.00 | 0.00 | 0.00 | 32 | 1029.8 |
| 20260903190047 | 70 | 311 | 0.9 | 3.5 | 0.00 | 0.00 | 0.00 | 33 | 1029.9 |
| 20260903185542 | 69 | 261 | 1.7 | 6.1 | 0.00 | 0.00 | 0.00 | 33 | 1030.2 |
| 20260903185038 | 71 | 1 | 3.5 | 7.0 | 0.00 | 0.00 | 0.00 | 32 | 1030.0 |
| 20260903184534 | 70 | 7 | 4.3 | 6.1 | 0.00 | 0.00 | 0.00 | 34 | 1030.0 |
| 20260903184029 | 70 | 13 | 1.7 | 3.5 | 0.00 | 0.00 | 0.00 | 33 | 1030.2 |
| 20260903183528 | 69 | 101 | 2.6 | 3.5 | 0.00 | 0.00 | 0.00 | 33 | 1030.3 |
| 20260903183024 | 69 | 198 | 6.1 | 7.0 | 0.00 | 0.00 | 0.00 | 35 | 1030.6 |
| 20260903182522 | 68 | 264 | 0.9 | 2.6 | 0.00 | 0.00 | 0.00 | 34 | 1030.7 |
| 20260903182019 | 70 | 353 | 2.6 | 2.6 | 0.00 | 0.00 | 0.00 | 35 | 1030.6 |
| 20260903181517 | 69 | 342 | 0.9 | 7.8 | 0.00 | 0.00 | 0.00 | 36 | 1030.6 |
| 20260903181017 | 69 | 336 | 2.6 | 5.2 | 0.00 | 0.00 | 0.00 | 34 | 1030.3 |
| 20260903180513 | 69 | 238 | 4.3 | 6.1 | 0.00 | 0.00 | 0.00 | 30 | 1030.7 |
| 20260903180012 | 69 | 251 | 1.7 | 3.5 | 0.00 | 0.00 | 0.00 | 31 | 1030.7 |
| 20260903175511 | 69 | 200 | 6.1 | 7.8 | 0.00 | 0.00 | 0.00 | 32 | 1030.4 |
| 20260903175010 | 69 | 74 | 2.6 | 6.1 | 0.00 | 0.00 | 0.00 | 32 | 1031.0 |
| 20260903174505 | 70 | 340 | 3.5 | 3.5 | 0.00 | 0.00 | 0.00 | 31 | 1031.0 |
| 20260903174000 | 69 | 32 | 2.6 | 3.5 | 0.00 | 0.00 | 0.00 | 32 | 1030.8 |
| 20260903173455 | 68 | 236 | 0.0 | 1.7 | 0.00 | 0.00 | 0.00 | 30 | 1030.8 |
| 20260903172950 | 68 | 10 | 2.6 | 3.5 | 0.00 | 0.00 | 0.00 | 30 | 1030.7 |
| 20260903172446 | 67 | 236 | 1.7 | 2.6 | 0.00 | 0.00 | 0.00 | 30 | 1031.0 |
| 20260903171941 | 69 | 209 | 2.6 | 2.6 | 0.00 | 0.00 | 0.00 | 29 | 1030.8 |
| 20260903171436 | 68 | 206 | 1.7 | 6.1 | 0.00 | 0.00 | 0.00 | 31 | 1031.1 |
| 20260903170936 | 67 | 263 | 0.9 | 3.5 | 0.00 | 0.00 | 0.00 | 32 | 1030.8 |
| 20260903170431 | 67 | 323 | 6.1 | 7.8 | 0.00 | 0.00 | 0.00 | 32 | 1031.1 |
| 20260903165930 | 66 | 302 | 2.6 | 3.5 | 0.00 | 0.00 | 0.00 | 32 | 1031.0 |
| 20260903165424 | 66 | 323 | 3.5 | 7.8 | 0.00 | 0.00 | 0.00 | 32 | 1030.7 |
| 20260903164918 | 67 | 354 | 2.6 | 11.3 | 0.00 | 0.00 | 0.00 | 32 | 1031.0 |
| 20260903164414 | 66 | 344 | 6.1 | 7.8 | 0.00 | 0.00 | 0.00 | 31 | 1030.8 |
| 20260903163913 | 68 | 296 | 0.0 | 1.7 | 0.00 | 0.00 | 0.00 | 34 | 1031.1 |
| 20260903163409 | 68 | 253 | 0.9 | 1.7 | 0.00 | 0.00 | 0.00 | 30 | 1031.1 |
| 20260903162905 | 66 | 208 | 0.0 | 3.5 | 0.00 | 0.00 | 0.00 | 33 | 1030.8 |
| 20260903162402 | 66 | 239 | 3.5 | 9.6 | 0.00 | 0.00 | 0.00 | 35 | 1030.7 |
| 20260903161857 | 66 | 177 | 1.7 | 5.2 | 0.00 | 0.00 | 0.00 | 35 | 1030.8 |
| 20260903161352 | 66 | 325 | 2.6 | 6.1 | 0.00 | 0.00 | 0.00 | 35 | 1030.7 |
| 20260903160848 | 66 | 254 | 0.0 | 1.7 | 0.00 | 0.00 | 0.00 | 33 | 1030.8 |
| 20260903160347 | 67 | 223 | 3.5 | 3.5 | 0.00 | 0.00 | 0.00 | 33 | 1030.8 |
| 20260903155845 | 65 | 261 | 2.6 | 6.1 | 0.00 | 0.00 | 0.00 | 40 | 1030.7 |
| 20260903155341 | 64 | 257 | 3.5 | 5.2 | 0.00 | 0.00 | 0.00 | 37 | 1030.8 |
| 20260903154837 | 64 | 251 | 1.7 | 2.6 | 0.00 | 0.00 | 0.00 | 37 | 1030.8 |
| 20260903154333 | 63 | 232 | 3.5 | 6.1 | 0.00 | 0.00 | 0.00 | 38 | 1030.7 |
| 20260903153833 | 63 | 229 | 3.5 | 6.1 | 0.00 | 0.00 | 0.00 | 39 | 1030.6 |
| 20260903153329 | 63 | 231 | 4.3 | 6.1 | 0.00 | 0.00 | 0.00 | 39 | 1030.7 |
| 20260903152825 | 64 | 208 | 2.6 | 5.2 | 0.00 | 0.00 | 0.00 | 39 | 1030.7 |
| 20260903152320 | 63 | 263 | 1.7 | 1.7 | 0.00 | 0.00 | 0.00 | 39 | 1030.8 |
| 20260903151815 | 62 | 237 | 0.9 | 3.5 | 0.00 | 0.00 | 0.00 | 44 | 1030.7 |
| 20260903151311 | 63 | 137 | 5.2 | 6.1 | 0.00 | 0.00 | 0.00 | 41 | 1030.8 |
| 20260903150812 | 62 | 249 | 1.7 | 5.2 | 0.00 | 0.00 | 0.00 | 44 | 1030.8 |
| 20260903150311 | 61 | 292 | 4.3 | 7.0 | 0.00 | 0.00 | 0.00 | 41 | 1031.0 |
| 20260903145806 | 62 | 246 | 0.9 | 6.1 | 0.00 | 0.00 | 0.00 | 42 | 1031.0 |
| 20260903145305 | 62 | 209 | 2.6 | 2.6 | 0.00 | 0.00 | 0.00 | 43 | 1030.8 |
| 20260903144800 | 63 | 257 | 0.0 | 1.7 | 0.00 | 0.00 | 0.00 | 43 | 1031.0 |
| 20260903144256 | 63 | 257 | 0.0 | 1.7 | 0.00 | 0.00 | 0.00 | 43 | 1031.0 |
| 20260903143752 | 61 | 142 | 1.7 | 2.6 | 0.00 | 0.00 | 0.00 | 43 | 1030.8 |
| 20260903143248 | 62 | 203 | 2.6 | 2.6 | 0.00 | 0.00 | 0.00 | 46 | 1030.8 |
| 20260903142743 | 61 | 218 | 0.9 | 1.7 | 0.00 | 0.00 | 0.00 | 42 | 1030.8 |
| 20260903142239 | 61 | 223 | 0.9 | 1.7 | 0.00 | 0.00 | 0.00 | 43 | 1031.0 |
| 20260903141735 | 59 | 235 | 0.9 | 1.7 | 0.00 | 0.00 | 0.00 | 50 | 1031.1 |
| 20260903141230 | 59 | 238 | 0.9 | 0.9 | 0.00 | 0.00 | 0.00 | 52 | 1031.1 |
| 20260903140725 | 59 | 244 | 0.0 | 0.0 | 0.00 | 0.00 | 0.00 | 53 | 1030.7 |
| 20260903140220 | 58 | 237 | 0.9 | 0.9 | 0.00 | 0.00 | 0.00 | 54 | 1031.0 |
| 20260903135716 | 56 | 235 | 1.7 | 1.7 | 0.00 | 0.00 | 0.00 | 51 | 1030.8 |
| 20260903135212 | 55 | 214 | 1.7 | 1.7 | 0.00 | 0.00 | 0.00 | 59 | 1030.6 |
| 20260903134710 | 55 | 226 | 0.9 | 1.7 | 0.00 | 0.00 | 0.00 | 60 | 1031.0 |
| 20260903134206 | 54 | 232 | 0.9 | 1.7 | 0.00 | 0.00 | 0.00 | 59 | 1030.7 |
| 20260903133704 | 53 | 220 | 1.7 | 1.7 | 0.00 | 0.00 | 0.00 | 61 | 1030.4 |
| 20260903133200 | 53 | 224 | 0.9 | 1.7 | 0.00 | 0.00 | 0.00 | 61 | 1030.7 |
| 20260903132654 | 53 | 230 | 0.9 | 1.7 | 0.00 | 0.00 | 0.00 | 60 | 1030.3 |
| 20260903132149 | 53 | 203 | 2.6 | 2.6 | 0.00 | 0.00 | 0.00 | 60 | 1030.3 |
| 20260903131644 | 52 | 218 | 1.7 | 1.7 | 0.00 | 0.00 | 0.00 | 59 | 1030.4 |
| 20260903131142 | 53 | 217 | 1.7 | 2.6 | 0.00 | 0.00 | 0.00 | 58 | 1030.4 |
| 20260903130638 | 52 | 202 | 3.5 | 3.5 | 0.00 | 0.00 | 0.00 | 57 | 1030.3 |
| 20260903130137 | 51 | 209 | 1.7 | 2.6 | 0.00 | 0.00 | 0.00 | 59 | 1030.3 |
| 20260903125636 | 52 | 224 | 1.7 | 1.7 | 0.00 | 0.00 | 0.00 | 58 | 1030.4 |
| 20260903125131 | 53 | 192 | 1.7 | 2.6 | 0.00 | 0.00 | 0.00 | 54 | 1030.2 |
| 20260903124625 | 52 | 221 | 1.7 | 6.1 | 0.00 | 0.00 | 0.00 | 53 | 1030.2 |
| 20260903124120 | 53 | 206 | 2.6 | 2.6 | 0.00 | 0.00 | 0.00 | 54 | 1030.0 |
| 20260903123619 | 54 | 227 | 1.7 | 1.7 | 0.00 | 0.00 | 0.00 | 55 | 1029.9 |
| 20260903123118 | 52 | 209 | 6.1 | 7.0 | 0.00 | 0.00 | 0.00 | 54 | 1030.0 |
| 20260903122613 | 52 | 208 | 2.6 | 2.6 | 0.00 | 0.00 | 0.00 | 54 | 1029.6 |
| 20260903122113 | 51 | 223 | 2.6 | 3.5 | 0.00 | 0.00 | 0.00 | 56 | 1029.9 |
| 20260903121607 | 50 | 202 | 2.6 | 3.5 | 0.00 | 0.00 | 0.00 | 56 | 1029.8 |
| 20260903121103 | 50 | 220 | 1.7 | 2.6 | 0.00 | 0.00 | 0.00 | 59 | 1029.9 |
| 20260903120601 | 51 | 181 | 2.6 | 2.6 | 0.00 | 0.00 | 0.00 | 56 | 1029.5 |
| 20260903120056 | 51 | 199 | 3.5 | 3.5 | 0.00 | 0.00 | 0.00 | 55 | 1029.8 |
| 20260903115554 | 50 | 194 | 3.5 | 3.5 | 0.00 | 0.00 | 0.00 | 59 | 1029.9 |
| 20260903115049 | 51 | 204 | 2.6 | 2.6 | 0.00 | 0.00 | 0.00 | 59 | 1029.6 |
| 20260903114544 | 51 | 219 | 2.6 | 2.6 | 0.00 | 0.00 | 0.00 | 58 | 1029.5 |
| 20260903114040 | 52 | 223 | 1.7 | 2.6 | 0.00 | 0.00 | 0.00 | 54 | 1029.9 |
| 20260903113535 | 50 | 201 | 2.6 | 3.5 | 0.00 | 0.00 | 0.00 | 56 | 1029.4 |
| 20260903113031 | 49 | 207 | 2.6 | 3.5 | 0.00 | 0.00 | 0.00 | 61 | 1029.6 |
| 20260903094241 | 52 | 247 | 0.9 | 1.7 | 0.00 | 0.00 | 0.00 | 53 | 1029.6 |
| 20260903093737 | 52 | 247 | 0.9 | 1.7 | 0.00 | 0.00 | 0.00 | 53 | 1029.6 |
| 20260903093232 | 52 | 218 | 1.7 | 2.6 | 0.00 | 0.00 | 0.00 | 54 | 1029.5 |
| 20260903092731 | 51 | 226 | 1.7 | 2.6 | 0.00 | 0.00 | 0.00 | 55 | 1029.8 |
| 20260903092227 | 51 | 208 | 1.7 | 2.6 | 0.00 | 0.00 | 0.00 | 55 | 1029.6 |
| 20260903091725 | 52 | 209 | 2.6 | 2.6 | 0.00 | 0.00 | 0.00 | 55 | 1029.8 |
| 20260903091220 | 51 | 213 | 2.6 | 3.5 | 0.00 | 0.00 | 0.00 | 56 | 1029.8 |
| 20260903090715 | 51 | 210 | 2.6 | 2.6 | 0.00 | 0.00 | 0.00 | 56 | 1029.8 |
| 20260903090214 | 53 | 197 | 2.6 | 3.5 | 0.00 | 0.00 | 0.00 | 53 | 1029.9 |
| 20260903085713 | 53 | 201 | 2.6 | 2.6 | 0.00 | 0.00 | 0.00 | 51 | 1030.0 |
| 20260903085209 | 52 | 209 | 1.7 | 2.6 | 0.00 | 0.00 | 0.00 | 55 | 1029.9 |
| 20260903084706 | 53 | 206 | 2.6 | 3.5 | 0.00 | 0.00 | 0.00 | 53 | 1029.8 |
| 20260903084201 | 55 | 200 | 1.7 | 2.6 | 0.00 | 0.00 | 0.00 | 51 | 1029.9 |
| 20260903083657 | 55 | 199 | 2.6 | 3.5 | 0.00 | 0.00 | 0.00 | 49 | 1029.9 |
| 20260903083157 | 53 | 231 | 2.6 | 3.5 | 0.00 | 0.00 | 0.00 | 50 | 1030.0 |
| 20260903082651 | 53 | 218 | 1.7 | 3.5 | 0.00 | 0.00 | 0.00 | 52 | 1029.9 |
| 20260903082147 | 52 | 223 | 2.6 | 3.5 | 0.00 | 0.00 | 0.00 | 54 | 1030.0 |
| 20260903081641 | 52 | 201 | 3.5 | 3.5 | 0.00 | 0.00 | 0.00 | 56 | 1029.8 |
| 20260903081138 | 52 | 206 | 2.6 | 2.6 | 0.00 | 0.00 | 0.00 | 57 | 1029.8 |
| 20260903080634 | 53 | 222 | 1.7 | 2.6 | 0.00 | 0.00 | 0.00 | 57 | 1030.0 |
| 20260903080132 | 53 | 191 | 2.6 | 2.6 | 0.00 | 0.00 | 0.00 | 54 | 1029.9 |
| 20260903075630 | 54 | 222 | 1.7 | 3.5 | 0.00 | 0.00 | 0.00 | 55 | 1029.8 |
| 20260903075125 | 53 | 252 | 2.6 | 3.5 | 0.00 | 0.00 | 0.00 | 51 | 1029.8 |
| 20260903074620 | 51 | 208 | 2.6 | 3.5 | 0.00 | 0.00 | 0.00 | 64 | 1029.9 |
| 20260903074120 | 53 | 208 | 2.6 | 2.6 | 0.00 | 0.00 | 0.00 | 61 | 1029.8 |
| 20260903073615 | 51 | 205 | 2.6 | 3.5 | 0.00 | 0.00 | 0.00 | 61 | 1029.9 |
| 20260903073111 | 50 | 210 | 1.7 | 2.6 | 0.00 | 0.00 | 0.00 | 63 | 1030.2 |
| 20260903072606 | 50 | 221 | 1.7 | 1.7 | 0.00 | 0.00 | 0.00 | 69 | 1030.2 |
| 20260903072102 | 51 | 211 | 2.6 | 2.6 | 0.00 | 0.00 | 0.00 | 69 | 1029.9 |
| 20260903071559 | 51 | 211 | 2.6 | 2.6 | 0.00 | 0.00 | 0.00 | 67 | 1029.9 |
| 20260903071054 | 52 | 207 | 2.6 | 2.6 | 0.00 | 0.00 | 0.00 | 66 | 1030.2 |
| 20260903070553 | 52 | 227 | 3.5 | 3.5 | 0.00 | 0.00 | 0.00 | 65 | 1030.3 |
| 20260903070049 | 53 | 203 | 2.6 | 2.6 | 0.00 | 0.00 | 0.00 | 67 | 1030.4 |
| 20260903065549 | 53 | 211 | 2.6 | 2.6 | 0.00 | 0.00 | 0.00 | 68 | 1030.2 |
| 20260903065048 | 53 | 211 | 2.6 | 2.6 | 0.00 | 0.00 | 0.00 | 70 | 1030.4 |
| 20260903064543 | 51 | 218 | 2.6 | 2.6 | 0.00 | 0.00 | 0.00 | 70 | 1030.7 |
| 20260903064038 | 51 | 207 | 2.6 | 2.6 | 0.00 | 0.00 | 0.00 | 71 | 1030.6 |
| 20260903063533 | 51 | 203 | 2.6 | 2.6 | 0.00 | 0.00 | 0.00 | 70 | 1030.2 |